STARLINK-32263, 60371

Orbit data source: Space-Track

STARLINK-32263, 60371 is a payload satellite owned by SpaceX/Seattle (US) in LEO that was launched on Sun, 04 Aug 2024 UTC via an FALCON 9 launch vehicle from the Air Force Western Test Range (AFWTR). Payload-class satellites include a variety of spacecraft equipped with specific instruments for various scientific and technological missions. These include communications satellites like Starlink; space stations such as the ISS; scientific satellites like the Hubble; Earth observation satellites from companies like Planet Labs, Umbra, and HawkEye 360; GPS; miniature CubeSats for education and research; and military/defense satellites.

Loading next visibility...
Identifier
60371, 2024-138S
Orbit
LEO
Country
Flag of USUS
Related business
Manufacturer
SpaceX/Seattle
Mission
Operational Commercial Communications
Bus & Motor
STARLINK V2M, Unknown motor
Mass
730 kg wet, ~700 kg dry
Launch date (UTC)
2024-08-04 (2 years ago)
Launch vehicle
FALCON 9
Launch site
Air Force Western Test Range (AFWTR)
Object type
Payload
Rocket body
Debris
Shape & HBR
Box + 2 Pan, 17.7 m
Radar Cross Section
33.884 m², Large (>1 m²)

Expand to show TLE details & history
Last TLE update: 11 hours ago

TLE from 11 hours ago
0 STARLINK-32263
1 60371U 24138S   26171.44155944  .00000450  00000-0  27329-4 0  9994
2 60371  53.1599 192.0279 0001228  89.2524 270.8617 15.30193198106260
Epoch: 2026-06-20T10:35Z
TLE epoch observation values (Epoch: 2026-06-20T10:35:50.735Z)
Latitude
-0.00006°
Longitude
124.41032°
Altitude
476.123 km
Speed
7.629 km/s
True Right ascension
12h 48m 06s
True Declination
0° 00' 00"
Sunlit
Object was in daylight at epoch
Visualization orbit readout
Latitude
Unknown
Longitude
Unknown
Altitude
Unknown
Speed
Unknown
Apparent Right ascension
Unknown
Apparent Declination
Unknown
Sunlit
N/A
Visualization observer readout
Local Sidereal Time
08:42:19
Azimuth
Unknown
Elevation
Unknown
Doppler factor
Unknown
Orbital elements
Apogee altitude
476.333 km
Perigee altitude
474.65 km
Semi-major axis
6,853.629 km
Eccentricity
0.00012
Inclination
53.1599°
RAAN
192.0279°
Arg. of periapsis
89.2524°
True anomaly
270.84763°
Mean anomaly
270.8617°
Eccentric anomaly
270.85466°
Mean motion
3.82527 °/min
Orbital period
94.11 mins
BSTAR
0.000027329
Loading maneuver chart data...
Computing Atmospheric mass density...
Loading historical data...
Loading historical data...
Loading historical data...
Loading historical data...
Loading historical data...
Loading historical data...
Loading historical data...

Documentation

Showing up to 5 results
|